Time,TemperatureF,DewpointF,PressureIn,WindDirection,WindDirectionDegrees,WindSpeedMPH,WindSpeedGustMPH,Humidity,HourlyPrecipIn,Conditions,Clouds,dailyrainin,SoftwareType,DateUTC
2013-03-23 00:02:00,70.1,70.1,29.68,ESE,110,8.1,8.1,100,0.00,CLR,,0.00,WeatherDisplay:10.37,2013-03-23 05:02:00,
2013-03-23 00:07:00,70.1,70.1,29.68,ESE,113,5.8,5.8,100,0.00,CLR,,0.00,WeatherDisplay:10.37,2013-03-23 05:07:00,
2013-03-23 00:12:00,70.1,70.1,29.68,ESE,103,4.6,4.6,100,0.00,CLR,,0.00,WeatherDisplay:10.37,2013-03-23 05:12:00,
2013-03-23 00:17:00,70.1,70.1,29.68,SSE,153,5.8,5.8,100,0.00,CLR,,0.00,WeatherDisplay:10.37,2013-03-23 05:17:00,
2013-03-23 00:22:00,70.1,70.1,29.68,ESE,110,10.4,10.4,100,0.00,CLR,,0.00,WeatherDisplay:10.37,2013-03-23 05:22:00,
2013-03-23 00:27:00,70.1,70.1,29.68,ESE,102,6.9,6.9,100,0.00,CLR,,0.00,WeatherDisplay:10.37,2013-03-23 05:27:00,
2013-03-23 00:32:00,70.1,70.1,29.68,ESE,115,5.8,6.4,100,0.00,CLR,,0.00,WeatherDisplay:10.37,2013-03-23 05:32:00,
2013-03-23 00:37:00,70.1,70.1,29.68,ESE,110,6.9,6.9,100,0.00,CLR,,0.00,WeatherDisplay:10.37,2013-03-23 05:37:00,
2013-03-23 00:42:00,70.1,70.1,29.68,East,101,5.8,5.8,100,0.00,CLR,,0.00,WeatherDisplay:10.37,2013-03-23 05:42:00,
2013-03-23 00:47:00,70.1,70.1,29.68,ESE,106,6.9,6.9,100,0.00,CLR,,0.00,WeatherDisplay:10.37,2013-03-23 05:47:00,
2013-03-23 00:52:00,70.0,70.0,29.68,East,96,11.5,11.5,100,0.00,CLR,,0.00,WeatherDisplay:10.37,2013-03-23 05:52:00,
2013-03-23 00:57:00,70.1,70.1,29.67,ESE,108,5.8,5.8,100,0.00,CLR,,0.00,WeatherDisplay:10.37,2013-03-23 05:57:00,
2013-03-23 01:02:00,70.1,70.1,29.67,ESE,115,6.9,6.9,100,0.00,CLR,,0.00,WeatherDisplay:10.37,2013-03-23 06:02:00,
2013-03-23 01:07:00,70.0,70.0,29.67,ESE,115,6.9,6.9,100,0.00,CLR,,0.00,WeatherDisplay:10.37,2013-03-23 06:07:00,
2013-03-23 01:12:00,70.0,70.0,29.66,ESE,113,9.2,9.2,100,0.00,CLR,,0.00,WeatherDisplay:10.37,2013-03-23 06:12:00,
2013-03-23 01:17:00,69.9,69.9,29.66,ESE,105,6.9,6.9,100,0.00,CLR,,0.00,WeatherDisplay:10.37,2013-03-23 06:17:00,
2013-03-23 01:22:00,69.9,69.9,29.66,East,94,8.4,8.4,100,0.00,CLR,,0.00,WeatherDisplay:10.37,2013-03-23 06:22:00,
2013-03-23 01:27:00,69.8,69.8,29.66,East,94,5.8,5.8,100,0.00,CLR,,0.00,WeatherDisplay:10.37,2013-03-23 06:27:00,
2013-03-23 01:32:00,69.8,69.8,29.65,ESE,107,13.7,13.7,100,0.00,CLR,,0.00,WeatherDisplay:10.37,2013-03-23 06:32:00,
2013-03-23 01:37:00,69.8,69.8,29.65,ESE,110,5.8,5.8,100,0.00,CLR,,0.00,WeatherDisplay:10.37,2013-03-23 06:37:00,
2013-03-23 01:42:00,69.8,69.8,29.65,ESE,108,9.2,9.2,100,0.00,CLR,,0.00,WeatherDisplay:10.37,2013-03-23 06:42:00,
2013-03-23 01:47:00,69.9,69.9,29.65,ESE,107,6.9,6.9,100,0.00,CLR,,0.00,WeatherDisplay:10.37,2013-03-23 06:47:00,
2013-03-23 01:52:00,69.9,69.9,29.65,ESE,115,5.8,5.8,100,0.00,CLR,,0.00,WeatherDisplay:10.37,2013-03-23 06:52:00,
2013-03-23 01:57:00,70.0,70.0,29.65,ENE,77,8.1,8.1,100,0.00,CLR,,0.00,WeatherDisplay:10.37,2013-03-23 06:57:00,
2013-03-23 02:02:00,70.0,70.0,29.65,ENE,57,7.4,7.4,100,0.00,CLR,,0.00,WeatherDisplay:10.37,2013-03-23 07:02:00,
2013-03-23 02:07:00,69.9,69.9,29.65,East,100,12.7,12.7,100,0.00,CLR,,0.00,WeatherDisplay:10.37,2013-03-23 07:07:00,
2013-03-23 02:12:00,70.0,70.0,29.65,ESE,109,5.8,5.8,100,0.00,CLR,,0.00,WeatherDisplay:10.37,2013-03-23 07:12:00,
2013-03-23 02:17:00,69.9,69.9,29.64,East,88,5.8,5.8,100,0.00,CLR,,0.00,WeatherDisplay:10.37,2013-03-23 07:17:00,
2013-03-23 02:22:00,69.9,69.9,29.64,ESE,103,6.9,6.9,100,0.00,CLR,,0.00,WeatherDisplay:10.37,2013-03-23 07:22:00,
2013-03-23 02:27:00,69.9,69.9,29.64,East,86,5.8,5.8,100,0.00,CLR,,0.00,WeatherDisplay:10.37,2013-03-23 07:27:00,
2013-03-23 02:32:00,69.9,69.9,29.64,East,82,9.2,9.2,100,0.00,CLR,,0.00,WeatherDisplay:10.37,2013-03-23 07:32:00,
2013-03-23 02:37:00,69.9,69.9,29.64,ESE,106,5.8,5.8,100,0.00,CLR,,0.00,WeatherDisplay:10.37,2013-03-23 07:37:00,
2013-03-23 02:42:00,69.9,69.9,29.63,ESE,103,6.9,6.9,100,0.00,CLR,,0.00,WeatherDisplay:10.37,2013-03-23 07:42:00,
2013-03-23 02:47:00,69.9,69.9,29.63,ESE,120,6.9,6.9,100,0.00,CLR,,0.00,WeatherDisplay:10.37,2013-03-23 07:47:00,
2013-03-23 02:52:00,69.8,69.8,29.62,ESE,108,10.4,10.4,100,0.00,CLR,,0.00,WeatherDisplay:10.37,2013-03-23 07:52:00,
2013-03-23 02:58:00,69.7,69.7,29.63,East,89,5.8,5.8,100,0.00,CLR,,0.00,WeatherDisplay:10.37,2013-03-23 07:58:00,
2013-03-23 03:03:00,69.7,69.7,29.63,ESE,123,6.9,6.9,100,0.00,CLR,,0.00,WeatherDisplay:10.37,2013-03-23 08:03:00,
2013-03-23 03:08:00,69.7,69.7,29.63,ESE,103,2.3,2.9,100,0.00,CLR,,0.00,WeatherDisplay:10.37,2013-03-23 08:08:00,
2013-03-23 03:13:00,69.7,69.7,29.63,East,96,4.6,4.6,100,0.00,CLR,,0.00,WeatherDisplay:10.37,2013-03-23 08:13:00,
2013-03-23 03:18:00,69.6,69.6,29.63,ESE,106,3.5,3.5,100,0.00,CLR,,0.00,WeatherDisplay:10.37,2013-03-23 08:18:00,
2013-03-23 03:23:00,69.6,69.6,29.63,ESE,104,5.3,5.3,100,0.00,CLR,,0.00,WeatherDisplay:10.37,2013-03-23 08:23:00,
2013-03-23 03:28:00,69.5,69.5,29.63,ESE,120,3.5,3.5,100,0.00,CLR,,0.00,WeatherDisplay:10.37,2013-03-23 08:28:00,
2013-03-23 03:33:00,69.5,69.5,29.63,ESE,110,3.5,3.5,100,0.00,CLR,,0.00,WeatherDisplay:10.37,2013-03-23 08:33:00,
2013-03-23 03:38:00,69.5,69.5,29.63,ESE,117,5.8,5.8,100,0.00,CLR,,0.00,WeatherDisplay:10.37,2013-03-23 08:38:00,
2013-03-23 03:43:00,69.5,69.5,29.63,ESE,122,2.3,2.3,100,0.00,CLR,,0.00,WeatherDisplay:10.37,2013-03-23 08:43:00,
2013-03-23 03:48:00,69.5,69.5,29.63,ESE,111,3.5,3.5,100,0.00,CLR,,0.00,WeatherDisplay:10.37,2013-03-23 08:48:00,
2013-03-23 03:53:00,69.5,69.5,29.63,ESE,114,1.1,1.5,100,0.00,CLR,,0.00,WeatherDisplay:10.37,2013-03-23 08:53:00,
2013-03-23 03:58:00,69.4,69.4,29.62,ESE,111,5.8,5.8,100,0.00,CLR,,0.00,WeatherDisplay:10.37,2013-03-23 08:58:00,
2013-03-23 04:03:00,69.4,69.4,29.63,ESE,123,4.6,4.6,100,0.00,CLR,,0.00,WeatherDisplay:10.37,2013-03-23 09:03:00,
2013-03-23 04:08:00,69.5,69.5,29.63,SE,129,2.3,2.3,100,0.00,CLR,,0.00,WeatherDisplay:10.37,2013-03-23 09:08:00,
2013-03-23 04:13:00,69.4,69.4,29.63,SE,127,3.5,3.5,100,0.00,CLR,,0.00,WeatherDisplay:10.37,2013-03-23 09:13:00,
2013-03-23 04:18:00,69.4,69.4,29.63,ESE,122,3.5,3.5,100,0.00,CLR,,0.00,WeatherDisplay:10.37,2013-03-23 09:18:00,
2013-03-23 04:23:00,69.4,69.4,29.63,ESE,122,1.1,1.2,100,0.00,CLR,,0.00,WeatherDisplay:10.37,2013-03-23 09:23:00,
2013-03-23 04:28:00,69.5,69.5,29.62,ESE,122,1.1,1.1,100,0.00,CLR,,0.00,WeatherDisplay:10.37,2013-03-23 09:28:00,
2013-03-23 04:33:00,69.5,69.5,29.63,ESE,122,1.1,0.0,100,0.00,CLR,,0.00,WeatherDisplay:10.37,2013-03-23 09:33:00,
2013-03-23 04:38:00,69.5,69.5,29.63,ESE,122,1.1,1.1,100,0.00,CLR,,0.00,WeatherDisplay:10.37,2013-03-23 09:38:00,
2013-03-23 04:43:00,69.5,69.5,29.63,ESE,122,1.1,0.0,100,0.00,CLR,,0.00,WeatherDisplay:10.37,2013-03-23 09:43:00,
2013-03-23 04:48:00,69.5,69.5,29.63,ESE,122,1.1,1.1,100,0.00,CLR,,0.00,WeatherDisplay:10.37,2013-03-23 09:48:00,
2013-03-23 04:53:00,69.5,69.5,29.63,ESE,122,1.1,1.1,100,0.00,CLR,,0.00,WeatherDisplay:10.37,2013-03-23 09:53:00,
2013-03-23 04:58:00,69.5,69.5,29.62,ESE,122,2.3,2.3,100,0.00,CLR,,0.00,WeatherDisplay:10.37,2013-03-23 09:58:00,
2013-03-23 05:03:00,69.5,69.5,29.62,ESE,122,1.1,1.1,100,0.00,CLR,,0.00,WeatherDisplay:10.37,2013-03-23 10:03:00,
2013-03-23 05:08:00,69.5,69.5,29.62,ESE,122,2.3,2.3,100,0.00,CLR,,0.00,WeatherDisplay:10.37,2013-03-23 10:08:00,
2013-03-23 05:13:00,69.5,69.5,29.62,ESE,122,2.3,2.3,100,0.00,CLR,,0.00,WeatherDisplay:10.37,2013-03-23 10:13:00,
2013-03-23 05:18:00,69.5,69.5,29.62,ESE,122,2.3,2.3,100,0.00,CLR,,0.00,WeatherDisplay:10.37,2013-03-23 10:18:00,
2013-03-23 05:23:00,69.5,69.5,29.62,ESE,122,3.5,3.5,100,0.00,CLR,,0.00,WeatherDisplay:10.37,2013-03-23 10:23:00,
2013-03-23 05:28:00,69.5,69.5,29.63,ESE,120,3.5,3.5,100,0.00,CLR,,0.00,WeatherDisplay:10.37,2013-03-23 10:28:00,
2013-03-23 05:33:00,69.6,69.6,29.63,ESE,109,4.6,4.6,100,0.00,CLR,,0.00,WeatherDisplay:10.37,2013-03-23 10:33:00,
2013-03-23 05:38:00,69.6,69.6,29.63,ESE,113,3.5,3.5,100,0.00,CLR,,0.00,WeatherDisplay:10.37,2013-03-23 10:38:00,
2013-03-23 05:43:00,69.6,69.6,29.62,ESE,113,3.5,3.5,100,0.00,CLR,,0.00,WeatherDisplay:10.37,2013-03-23 10:43:00,
2013-03-23 05:48:00,69.7,69.7,29.62,ESE,110,3.5,3.5,100,0.00,CLR,,0.00,WeatherDisplay:10.37,2013-03-23 10:48:00,
2013-03-23 05:53:00,69.7,69.7,29.62,ESE,110,3.5,3.5,100,0.00,CLR,,0.00,WeatherDisplay:10.37,2013-03-23 10:53:00,
2013-03-23 05:58:00,69.7,69.7,29.63,ESE,111,3.5,3.5,100,0.00,CLR,,0.00,WeatherDisplay:10.37,2013-03-23 10:58:00,
2013-03-23 06:03:00,69.8,69.8,29.63,ESE,111,3.2,3.2,100,0.00,CLR,,0.00,WeatherDisplay:10.37,2013-03-23 11:03:00,
2013-03-23 06:08:00,69.8,69.8,29.63,ESE,111,2.3,2.3,100,0.00,CLR,,0.00,WeatherDisplay:10.37,2013-03-23 11:08:00,
2013-03-23 06:13:00,69.7,69.7,29.63,ESE,111,3.5,3.5,100,0.00,CLR,,0.00,WeatherDisplay:10.37,2013-03-23 11:13:00,
2013-03-23 06:18:00,69.7,69.7,29.63,ESE,111,1.1,1.1,100,0.00,CLR,,0.00,WeatherDisplay:10.37,2013-03-23 11:18:00,
2013-03-23 06:23:00,69.7,69.7,29.63,ESE,111,1.1,0.0,100,0.00,CLR,,0.00,WeatherDisplay:10.37,2013-03-23 11:23:00,
2013-03-23 06:28:00,69.7,69.7,29.63,ESE,111,1.1,1.1,100,0.00,CLR,,0.00,WeatherDisplay:10.37,2013-03-23 11:28:00,
2013-03-23 06:33:00,69.6,69.6,29.63,ESE,111,2.3,2.3,100,0.00,CLR,,0.00,WeatherDisplay:10.37,2013-03-23 11:33:00,
2013-03-23 06:38:00,69.6,69.6,29.64,ESE,111,1.1,1.1,100,0.00,CLR,,0.00,WeatherDisplay:10.37,2013-03-23 11:38:00,
2013-03-23 06:43:00,69.6,69.6,29.64,ESE,111,1.1,1.1,100,0.00,CLR,,0.00,WeatherDisplay:10.37,2013-03-23 11:43:00,
2013-03-23 06:48:00,69.6,69.6,29.64,ESE,111,0.0,0.0,100,0.00,CLR,,0.00,WeatherDisplay:10.37,2013-03-23 11:48:00,
2013-03-23 06:53:00,69.6,69.6,29.64,ESE,111,0.0,0.0,100,0.00,CLR,,0.00,WeatherDisplay:10.37,2013-03-23 11:53:00,
2013-03-23 06:58:00,69.6,69.6,29.64,ESE,111,1.1,1.1,100,0.00,CLR,,0.00,WeatherDisplay:10.37,2013-03-23 11:58:00,
2013-03-23 07:03:00,69.6,69.6,29.64,ESE,111,2.3,2.3,100,0.00,CLR,,0.00,WeatherDisplay:10.37,2013-03-23 12:03:00,
2013-03-23 07:08:00,69.6,69.6,29.64,ESE,111,2.3,2.3,100,0.00,CLR,,0.00,WeatherDisplay:10.37,2013-03-23 12:08:00,
2013-03-23 07:13:00,69.6,69.6,29.64,ESE,111,1.1,1.1,100,0.00,CLR,,0.00,WeatherDisplay:10.37,2013-03-23 12:13:00,
2013-03-23 07:18:00,69.6,69.6,29.64,ESE,111,2.3,2.3,100,0.00,CLR,,0.00,WeatherDisplay:10.37,2013-03-23 12:18:00,
2013-03-23 07:23:00,69.7,69.7,29.64,ESE,111,2.3,2.3,100,0.00,CLR,,0.00,WeatherDisplay:10.37,2013-03-23 12:23:00,
2013-03-23 07:28:00,69.7,69.7,29.64,ESE,110,3.5,3.5,100,0.00,CLR,,0.00,WeatherDisplay:10.37,2013-03-23 12:28:00,
2013-03-23 07:33:00,69.7,69.7,29.64,ESE,110,3.5,3.5,100,0.00,CLR,,0.00,WeatherDisplay:10.37,2013-03-23 12:33:00,
2013-03-23 07:38:00,69.7,69.7,29.64,East,98,2.3,2.3,100,0.00,CLR,,0.00,WeatherDisplay:10.37,2013-03-23 12:38:00,
2013-03-23 07:43:00,69.8,69.8,29.64,East,79,2.3,2.3,100,0.00,CLR,,0.00,WeatherDisplay:10.37,2013-03-23 12:43:00,
2013-03-23 07:48:00,69.8,69.8,29.64,East,79,3.5,3.5,100,0.00,CLR,,0.00,WeatherDisplay:10.37,2013-03-23 12:48:00,
2013-03-23 07:53:00,69.8,69.8,29.64,ENE,75,3.5,3.5,100,0.00,CLR,,0.00,WeatherDisplay:10.37,2013-03-23 12:53:00,
2013-03-23 07:58:00,69.8,69.8,29.64,ENE,76,2.3,2.3,100,0.00,CLR,,0.00,WeatherDisplay:10.37,2013-03-23 12:58:00,
2013-03-23 08:03:00,69.9,69.9,29.63,ENE,72,4.6,4.6,100,0.00,CLR,,0.00,WeatherDisplay:10.37,2013-03-23 13:03:00,
2013-03-23 08:08:00,69.9,69.9,29.63,ENE,75,4.6,4.6,100,0.00,CLR,,0.00,WeatherDisplay:10.37,2013-03-23 13:08:00,
2013-03-23 08:13:00,69.9,69.9,29.63,ENE,72,3.5,3.5,100,0.00,CLR,,0.00,WeatherDisplay:10.37,2013-03-23 13:13:00,
2013-03-23 08:18:00,69.8,69.8,29.64,ENE,78,4.6,4.6,100,0.00,CLR,,0.00,WeatherDisplay:10.37,2013-03-23 13:18:00,
2013-03-23 08:23:00,69.8,69.8,29.63,East,80,3.5,3.5,100,0.00,CLR,,0.00,WeatherDisplay:10.37,2013-03-23 13:23:00,
2013-03-23 08:28:00,69.9,69.9,29.63,ENE,75,5.8,5.8,100,0.00,CLR,,0.00,WeatherDisplay:10.37,2013-03-23 13:28:00,
2013-03-23 08:33:00,69.9,69.9,29.64,ENE,64,5.8,5.8,100,0.00,CLR,,0.00,WeatherDisplay:10.37,2013-03-23 13:33:00,
2013-03-23 08:38:00,70.0,70.0,29.64,East,91,3.5,3.5,100,0.00,CLR,,0.00,WeatherDisplay:10.37,2013-03-23 13:38:00,
2013-03-23 08:43:00,70.0,70.0,29.64,ESE,102,2.3,2.3,100,0.00,CLR,,0.00,WeatherDisplay:10.37,2013-03-23 13:43:00,
2013-03-23 08:48:00,70.1,70.1,29.65,East,98,3.5,3.5,100,0.00,CLR,,0.00,WeatherDisplay:10.37,2013-03-23 13:48:00,
2013-03-23 08:53:00,70.1,70.1,29.65,ENE,77,4.6,4.6,100,0.00,CLR,,0.00,WeatherDisplay:10.37,2013-03-23 13:53:00,
2013-03-23 08:58:00,70.2,70.2,29.65,ENE,77,1.1,1.1,100,0.00,CLR,,0.00,WeatherDisplay:10.37,2013-03-23 13:58:00,
2013-03-23 09:03:00,70.2,70.2,29.65,ENE,78,3.5,3.5,100,0.00,CLR,,0.00,WeatherDisplay:10.37,2013-03-23 14:03:00,
2013-03-23 09:08:00,70.3,70.3,29.65,East,79,4.6,4.6,100,0.00,CLR,,0.00,WeatherDisplay:10.37,2013-03-23 14:08:00,
2013-03-23 09:13:00,70.4,70.4,29.65,ESE,105,4.6,4.6,100,0.00,CLR,,0.00,WeatherDisplay:10.37,2013-03-23 14:13:00,
2013-03-23 09:18:00,70.2,70.2,29.65,ESE,105,4.6,4.6,100,0.00,CLR,,0.00,WeatherDisplay:10.37,2013-03-23 14:18:00,
2013-03-23 09:23:00,70.2,70.2,29.66,East,92,3.2,3.2,100,0.00,CLR,,0.00,WeatherDisplay:10.37,2013-03-23 14:23:00,
2013-03-23 09:28:00,70.2,70.2,29.66,East,92,2.3,2.3,100,0.00,CLR,,0.00,WeatherDisplay:10.37,2013-03-23 14:28:00,
2013-03-23 09:33:00,70.2,70.2,29.66,ESE,104,2.3,2.3,100,0.00,CLR,,0.00,WeatherDisplay:10.37,2013-03-23 14:33:00,
2013-03-23 09:38:00,70.1,70.1,29.66,ESE,105,3.5,3.5,100,0.00,CLR,,0.00,WeatherDisplay:10.37,2013-03-23 14:38:00,
2013-03-23 09:43:00,70.2,70.2,29.66,ESE,104,3.5,3.5,100,0.00,CLR,,0.00,WeatherDisplay:10.37,2013-03-23 14:43:00,
2013-03-23 09:48:00,70.3,70.3,29.66,ESE,106,3.5,3.5,100,0.00,CLR,,0.00,WeatherDisplay:10.37,2013-03-23 14:48:00,
2013-03-23 09:53:00,70.4,70.4,29.65,East,91,5.8,5.8,100,0.00,CLR,,0.00,WeatherDisplay:10.37,2013-03-23 14:53:00,
2013-03-23 09:58:00,70.4,70.4,29.65,East,101,5.8,5.8,100,0.00,CLR,,0.00,WeatherDisplay:10.37,2013-03-23 14:58:00,
2013-03-23 10:03:00,70.4,70.4,29.65,ESE,111,4.6,4.6,100,0.00,CLR,,0.00,WeatherDisplay:10.37,2013-03-23 15:03:00,
2013-03-23 10:08:00,70.6,70.6,29.65,East,91,4.6,4.6,100,0.00,CLR,,0.00,WeatherDisplay:10.37,2013-03-23 15:08:00,
2013-03-23 10:13:00,70.6,70.6,29.65,ENE,76,1.1,1.1,100,0.00,CLR,,0.00,WeatherDisplay:10.37,2013-03-23 15:13:00,
2013-03-23 10:18:00,70.6,70.6,29.65,ENE,76,2.1,2.1,100,0.00,CLR,,0.00,WeatherDisplay:10.37,2013-03-23 15:18:00,
2013-03-23 10:23:00,70.7,70.7,29.66,ENE,76,2.3,2.3,100,0.00,CLR,,0.00,WeatherDisplay:10.37,2013-03-23 15:23:00,
2013-03-23 10:28:00,70.8,70.8,29.66,ENE,76,2.3,2.3,100,0.00,CLR,,0.00,WeatherDisplay:10.37,2013-03-23 15:28:00,
2013-03-23 10:33:00,70.7,70.7,29.66,ENE,76,2.3,2.3,100,0.00,CLR,,0.00,WeatherDisplay:10.37,2013-03-23 15:33:00,
2013-03-23 10:38:00,70.8,70.8,29.67,ENE,76,0.0,0.0,100,0.00,CLR,,0.00,WeatherDisplay:10.37,2013-03-23 15:38:00,
2013-03-23 10:43:00,70.9,70.9,29.66,ENE,76,0.0,0.0,100,0.00,CLR,,0.00,WeatherDisplay:10.37,2013-03-23 15:43:00,
2013-03-23 10:48:00,71.2,71.2,29.67,ENE,76,0.0,0.0,100,0.00,CLR,,0.00,WeatherDisplay:10.37,2013-03-23 15:48:00,
2013-03-23 10:53:00,71.3,71.3,29.66,ENE,76,1.1,1.1,100,0.00,CLR,,0.00,WeatherDisplay:10.37,2013-03-23 15:53:00,
2013-03-23 10:58:00,71.3,71.3,29.67,ENE,76,1.1,1.1,100,0.00,CLR,,0.00,WeatherDisplay:10.37,2013-03-23 15:58:00,
2013-03-23 11:03:00,71.4,71.4,29.67,ENE,76,3.5,3.5,100,0.00,CLR,,0.00,WeatherDisplay:10.37,2013-03-23 16:03:00,
2013-03-23 11:08:00,71.5,71.5,29.67,ENE,76,0.0,0.0,100,0.00,CLR,,0.00,WeatherDisplay:10.37,2013-03-23 16:08:00,
2013-03-23 11:13:00,71.6,71.6,29.67,ENE,76,1.1,1.1,100,0.00,CLR,,0.00,WeatherDisplay:10.37,2013-03-23 16:13:00,
2013-03-23 11:18:00,71.8,71.8,29.67,ENE,76,1.1,1.1,100,0.00,CLR,,0.00,WeatherDisplay:10.37,2013-03-23 16:18:00,
2013-03-23 11:23:00,71.9,71.9,29.67,ENE,76,1.1,1.1,100,0.00,CLR,,0.00,WeatherDisplay:10.37,2013-03-23 16:23:00,
2013-03-23 11:28:00,72.1,71.8,29.67,ENE,76,2.3,2.3,99,0.00,CLR,,0.00,WeatherDisplay:10.37,2013-03-23 16:28:00,
2013-03-23 11:33:00,72.3,72.0,29.67,ENE,76,2.3,2.3,99,0.00,CLR,,0.00,WeatherDisplay:10.37,2013-03-23 16:33:00,
2013-03-23 11:38:00,72.5,71.9,29.67,ENE,76,0.0,0.0,98,0.00,CLR,,0.00,WeatherDisplay:10.37,2013-03-23 16:38:00,
2013-03-23 11:43:00,72.8,72.2,29.67,ENE,76,2.3,2.3,98,0.00,CLR,,0.00,WeatherDisplay:10.37,2013-03-23 16:43:00,
2013-03-23 11:48:00,73.1,72.2,29.67,ENE,76,2.3,2.3,97,0.00,CLR,,0.00,WeatherDisplay:10.37,2013-03-23 16:48:00,
2013-03-23 11:53:00,73.6,72.4,29.67,ENE,76,3.5,3.5,96,0.00,CLR,,0.00,WeatherDisplay:10.37,2013-03-23 16:53:00,
2013-03-23 11:58:00,74.1,72.9,29.67,NE,36,3.5,3.5,96,0.00,CLR,,0.00,WeatherDisplay:10.37,2013-03-23 16:58:00,
2013-03-23 12:03:00,74.4,72.2,29.67,NE,35,4.6,4.6,93,0.00,CLR,,0.00,WeatherDisplay:10.37,2013-03-23 17:03:00,
2013-03-23 12:08:00,73.9,70.5,29.67,North,1,9.2,9.2,89,0.00,CLR,,0.00,WeatherDisplay:10.37,2013-03-23 17:08:00,
2013-03-23 12:14:00,73.0,69.9,29.67,NW,319,6.9,6.9,90,0.00,CLR,,0.00,WeatherDisplay:10.37,2013-03-23 17:14:00,
2013-03-23 12:19:00,72.3,69.2,29.68,NW,312,3.5,3.5,90,0.00,CLR,,0.00,WeatherDisplay:10.37,2013-03-23 17:19:00,
2013-03-23 12:24:00,71.6,68.8,29.68,North,4,6.9,6.9,91,0.00,CLR,,0.00,WeatherDisplay:10.37,2013-03-23 17:24:00,
2013-03-23 12:29:00,71.0,68.6,29.68,North,0,6.9,6.9,92,0.00,CLR,,0.00,WeatherDisplay:10.37,2013-03-23 17:29:00,
2013-03-23 12:34:00,70.3,68.2,29.68,NNE,27,6.9,6.9,93,0.00,CLR,,0.00,WeatherDisplay:10.37,2013-03-23 17:34:00,
2013-03-23 12:39:00,69.8,67.7,29.68,North,0,9.2,9.2,93,0.00,CLR,,0.00,WeatherDisplay:10.37,2013-03-23 17:39:00,
2013-03-23 12:44:00,69.5,67.7,29.68,North,4,10.4,10.4,94,0.00,CLR,,0.00,WeatherDisplay:10.37,2013-03-23 17:44:00,
2013-03-23 12:49:00,69.3,67.2,29.68,North,354,9.2,9.2,93,0.00,CLR,,0.00,WeatherDisplay:10.37,2013-03-23 17:49:00,
2013-03-23 12:54:00,69.0,66.6,29.68,NNW,335,9.2,9.2,92,0.00,CLR,,0.00,WeatherDisplay:10.37,2013-03-23 17:54:00,
2013-03-23 12:59:00,68.4,66.0,29.68,NNW,348,11.5,11.5,92,0.00,CLR,,0.00,WeatherDisplay:10.37,2013-03-23 17:59:00,
2013-03-23 13:04:00,67.9,66.1,29.68,NNW,348,9.2,9.2,94,0.00,CLR,,0.00,WeatherDisplay:10.37,2013-03-23 18:04:00,
2013-03-23 13:09:00,67.5,65.7,29.68,NE,36,9.2,9.2,94,0.00,CLR,,0.00,WeatherDisplay:10.37,2013-03-23 18:09:00,
2013-03-23 13:14:00,67.2,65.4,29.67,North,359,12.7,12.7,94,0.00,CLR,,0.00,WeatherDisplay:10.37,2013-03-23 18:14:00,
2013-03-23 13:19:00,67.5,65.7,29.67,North,7,9.2,9.2,94,0.00,CLR,,0.00,WeatherDisplay:10.37,2013-03-23 18:19:00,
2013-03-23 13:24:00,67.7,65.6,29.67,North,4,9.2,9.2,93,0.00,CLR,,0.00,WeatherDisplay:10.37,2013-03-23 18:24:00,
2013-03-23 13:29:00,68.1,65.7,29.67,NW,319,9.2,9.2,92,0.00,CLR,,0.00,WeatherDisplay:10.37,2013-03-23 18:29:00,
2013-03-23 13:34:00,68.4,65.7,29.66,North,8,9.2,9.2,91,0.00,CLR,,0.00,WeatherDisplay:10.37,2013-03-23 18:34:00,
2013-03-23 13:39:00,68.3,65.6,29.66,NNE,32,12.7,12.7,91,0.00,CLR,,0.00,WeatherDisplay:10.37,2013-03-23 18:39:00,
2013-03-23 13:44:00,68.5,66.1,29.66,NNE,13,8.1,8.1,92,0.00,CLR,,0.00,WeatherDisplay:10.37,2013-03-23 18:44:00,
2013-03-23 13:49:00,69.1,66.4,29.65,North,1,9.4,9.4,91,0.00,CLR,,0.00,WeatherDisplay:10.37,2013-03-23 18:49:00,
2013-03-23 13:54:00,69.6,66.9,29.65,North,7,10.4,10.4,91,0.00,CLR,,0.00,WeatherDisplay:10.37,2013-03-23 18:54:00,
2013-03-23 13:59:00,69.8,66.4,29.65,North,1,9.2,9.2,89,0.00,CLR,,0.00,WeatherDisplay:10.37,2013-03-23 18:59:00,
2013-03-23 14:04:00,69.7,66.3,29.65,North,359,10.4,10.4,89,0.00,CLR,,0.00,WeatherDisplay:10.37,2013-03-23 19:04:00,
2013-03-23 14:09:00,70.6,67.2,29.64,North,354,5.8,5.8,89,0.00,CLR,,0.00,WeatherDisplay:10.37,2013-03-23 19:09:00,
2013-03-23 14:14:00,71.4,67.3,29.64,North,8,12.7,12.7,87,0.00,CLR,,0.00,WeatherDisplay:10.37,2013-03-23 19:14:00,
2013-03-23 14:19:00,71.8,67.0,29.64,ENE,68,13.8,13.8,85,0.00,CLR,,0.00,WeatherDisplay:10.37,2013-03-23 19:19:00,
2013-03-23 14:24:00,71.6,67.2,29.64,NNE,25,11.5,11.5,86,0.00,CLR,,0.00,WeatherDisplay:10.37,2013-03-23 19:24:00,
2013-03-23 14:29:00,72.0,67.6,29.64,North,1,9.2,9.2,86,0.00,CLR,,0.00,WeatherDisplay:10.37,2013-03-23 19:29:00,
2013-03-23 14:34:00,72.3,67.9,29.63,North,359,6.9,6.9,86,0.00,CLR,,0.00,WeatherDisplay:10.37,2013-03-23 19:34:00,
2013-03-23 14:39:00,72.8,68.0,29.63,North,359,6.9,6.9,85,0.00,CLR,,0.00,WeatherDisplay:10.37,2013-03-23 19:39:00,
2013-03-23 14:44:00,73.6,68.5,29.62,East,80,5.8,5.8,84,0.00,CLR,,0.00,WeatherDisplay:10.37,2013-03-23 19:44:00,
2013-03-23 14:49:00,73.5,68.4,29.62,NE,56,5.8,5.8,84,0.00,CLR,,0.00,WeatherDisplay:10.37,2013-03-23 19:49:00,
2013-03-23 14:54:00,73.8,69.0,29.62,NE,39,9.2,9.2,85,0.00,CLR,,0.00,WeatherDisplay:10.37,2013-03-23 19:54:00,
2013-03-23 14:59:00,74.2,68.7,29.61,East,79,5.8,5.8,83,0.00,CLR,,0.00,WeatherDisplay:10.37,2013-03-23 19:59:00,
2013-03-23 15:04:00,74.7,69.2,29.60,North,0,6.3,6.3,83,0.00,CLR,,0.00,WeatherDisplay:10.37,2013-03-23 20:04:00,
2013-03-23 15:09:00,75.3,69.8,29.60,North,0,6.9,6.9,83,0.00,CLR,,0.00,WeatherDisplay:10.37,2013-03-23 20:09:00,
2013-03-23 15:14:00,76.2,70.3,29.60,NNW,345,10.4,10.4,82,0.00,CLR,,0.00,WeatherDisplay:10.37,2013-03-23 20:14:00,
2013-03-23 15:19:00,76.6,70.0,29.60,North,5,6.9,6.9,80,0.00,CLR,,0.00,WeatherDisplay:10.37,2013-03-23 20:19:00,
2013-03-23 15:24:00,77.1,70.5,29.60,NE,34,5.8,5.8,80,0.00,CLR,,0.00,WeatherDisplay:10.37,2013-03-23 20:24:00,
2013-03-23 15:29:00,77.4,70.4,29.60,NE,36,5.8,5.8,79,0.00,CLR,,0.00,WeatherDisplay:10.37,2013-03-23 20:29:00,
2013-03-23 15:34:00,77.7,70.7,29.60,NNE,16,12.7,12.7,79,0.00,CLR,,0.00,WeatherDisplay:10.37,2013-03-23 20:34:00,
2013-03-23 15:39:00,78.0,71.0,29.60,ENE,67,5.8,5.8,79,0.00,CLR,,0.00,WeatherDisplay:10.37,2013-03-23 20:39:00,
2013-03-23 15:44:00,78.4,71.0,29.59,North,1,6.9,6.9,78,0.00,CLR,,0.00,WeatherDisplay:10.37,2013-03-23 20:44:00,
2013-03-23 15:49:00,78.6,71.2,29.59,NNE,18,5.8,5.8,78,0.00,CLR,,0.00,WeatherDisplay:10.37,2013-03-23 20:49:00,
2013-03-23 15:54:00,78.6,70.4,29.58,NE,46,6.9,6.9,76,0.00,CLR,,0.00,WeatherDisplay:10.37,2013-03-23 20:54:00,
2013-03-23 15:59:00,78.6,70.0,29.58,ENE,77,7.4,7.4,75,0.00,CLR,,0.00,WeatherDisplay:10.37,2013-03-23 20:59:00,
2013-03-23 16:04:00,77.9,69.7,29.58,NE,45,6.9,6.9,76,0.00,CLR,,0.00,WeatherDisplay:10.37,2013-03-23 21:04:00,
2013-03-23 16:09:00,77.6,69.8,29.58,NE,52,10.4,10.4,77,0.00,CLR,,0.00,WeatherDisplay:10.37,2013-03-23 21:09:00,
2013-03-23 16:14:00,77.3,69.5,29.58,East,90,9.2,9.2,77,0.00,CLR,,0.00,WeatherDisplay:10.37,2013-03-23 21:14:00,
2013-03-23 16:19:00,76.5,69.5,29.58,East,93,9.2,9.2,79,0.00,CLR,,0.00,WeatherDisplay:10.37,2013-03-23 21:19:00,
2013-03-23 16:24:00,76.6,69.6,29.58,ESE,105,6.9,6.9,79,0.00,CLR,,0.00,WeatherDisplay:10.37,2013-03-23 21:24:00,
2013-03-23 16:29:00,76.5,69.9,29.58,NE,53,6.9,6.9,80,0.00,CLR,,0.00,WeatherDisplay:10.37,2013-03-23 21:29:00,
2013-03-23 16:34:00,76.5,69.9,29.57,ENE,75,5.8,5.8,80,0.00,CLR,,0.00,WeatherDisplay:10.37,2013-03-23 21:34:00,
2013-03-23 16:39:00,76.3,69.7,29.57,East,100,10.4,10.4,80,0.00,CLR,,0.00,WeatherDisplay:10.37,2013-03-23 21:39:00,
2013-03-23 16:44:00,76.2,69.9,29.57,East,91,10.4,10.4,81,0.00,CLR,,0.00,WeatherDisplay:10.37,2013-03-23 21:44:00,
2013-03-23 16:49:00,76.3,69.7,29.57,ENE,70,9.2,9.2,80,0.00,CLR,,0.00,WeatherDisplay:10.37,2013-03-23 21:49:00,
2013-03-23 16:54:00,76.5,70.2,29.57,ENE,73,5.8,5.8,81,0.00,CLR,,0.00,WeatherDisplay:10.37,2013-03-23 21:54:00,
2013-03-23 16:59:00,76.5,69.9,29.57,ENE,68,5.8,5.8,80,0.00,CLR,,0.00,WeatherDisplay:10.37,2013-03-23 21:59:00,
2013-03-23 17:04:00,77.0,70.4,29.57,ENE,65,5.8,5.8,80,0.00,CLR,,0.00,WeatherDisplay:10.37,2013-03-23 22:04:00,
2013-03-23 17:09:00,77.0,70.4,29.57,ESE,123,5.8,5.8,80,0.00,CLR,,0.00,WeatherDisplay:10.37,2013-03-23 22:09:00,
2013-03-23 17:14:00,76.6,70.0,29.57,SE,127,6.3,6.3,80,0.00,CLR,,0.00,WeatherDisplay:10.37,2013-03-23 22:14:00,
2013-03-23 17:19:00,76.4,70.1,29.57,ENE,65,5.8,5.8,81,0.00,CLR,,0.00,WeatherDisplay:10.37,2013-03-23 22:19:00,
2013-03-23 17:24:00,76.4,70.1,29.57,East,94,5.8,5.8,81,0.00,CLR,,0.00,WeatherDisplay:10.37,2013-03-23 22:24:00,
2013-03-23 17:29:00,76.8,70.9,29.57,SE,139,4.6,4.6,82,0.00,CLR,,0.00,WeatherDisplay:10.37,2013-03-23 22:29:00,
2013-03-23 17:34:00,76.8,70.5,29.56,ESE,108,5.8,5.8,81,0.00,CLR,,0.00,WeatherDisplay:10.37,2013-03-23 22:34:00,
2013-03-23 17:39:00,76.7,70.8,29.56,East,82,9.2,9.2,82,0.00,CLR,,0.00,WeatherDisplay:10.37,2013-03-23 22:39:00,
2013-03-23 17:44:00,76.5,70.6,29.56,ESE,103,5.8,5.8,82,0.00,CLR,,0.00,WeatherDisplay:10.37,2013-03-23 22:44:00,
2013-03-23 17:49:00,76.6,70.7,29.57,ENE,78,4.6,4.6,82,0.00,CLR,,0.00,WeatherDisplay:10.37,2013-03-23 22:49:00,
2013-03-23 17:54:00,76.6,70.7,29.57,ESE,108,5.8,5.8,82,0.00,CLR,,0.00,WeatherDisplay:10.37,2013-03-23 22:54:00,
2013-03-23 17:59:00,76.4,70.5,29.57,East,96,5.8,5.8,82,0.00,CLR,,0.00,WeatherDisplay:10.37,2013-03-23 22:59:00,
2013-03-23 18:04:00,76.0,70.1,29.57,SE,139,5.8,5.8,82,0.00,CLR,,0.00,WeatherDisplay:10.37,2013-03-23 23:04:00,
2013-03-23 18:09:00,75.7,70.2,29.57,ESE,108,6.9,6.9,83,0.00,CLR,,0.00,WeatherDisplay:10.37,2013-03-23 23:09:00,
2013-03-23 18:14:00,75.5,70.0,29.57,SE,131,5.8,5.8,83,0.00,CLR,,0.00,WeatherDisplay:10.37,2013-03-23 23:14:00,
2013-03-23 18:19:00,75.3,69.8,29.57,ESE,108,5.8,5.8,83,0.00,CLR,,0.00,WeatherDisplay:10.37,2013-03-23 23:19:00,
2013-03-23 18:24:00,75.1,69.6,29.57,ESE,103,4.6,4.6,83,0.00,CLR,,0.00,WeatherDisplay:10.37,2013-03-23 23:24:00,
2013-03-23 18:29:00,74.9,69.7,29.57,ENE,68,6.3,6.3,84,0.00,CLR,,0.00,WeatherDisplay:10.37,2013-03-23 23:29:00,
2013-03-23 18:34:00,74.6,69.4,29.57,ESE,106,5.8,5.8,84,0.00,CLR,,0.00,WeatherDisplay:10.37,2013-03-23 23:34:00,
2013-03-23 18:39:00,74.4,69.2,29.57,East,99,4.6,4.6,84,0.00,CLR,,0.00,WeatherDisplay:10.37,2013-03-23 23:39:00,
2013-03-23 18:44:00,74.4,69.6,29.57,SE,132,4.2,4.3,85,0.00,CLR,,0.00,WeatherDisplay:10.37,2013-03-23 23:44:00,
2013-03-23 18:49:00,73.9,68.8,29.58,ESE,110,8.1,8.1,84,0.00,CLR,,0.00,WeatherDisplay:10.37,2013-03-23 23:49:00,
2013-03-23 18:54:00,73.5,68.7,29.58,East,101,3.5,3.5,85,0.00,CLR,,0.00,WeatherDisplay:10.37,2013-03-23 23:54:00,
2013-03-23 18:59:00,73.0,68.6,29.58,East,92,9.2,9.2,86,0.00,CLR,,0.00,WeatherDisplay:10.37,2013-03-23 23:59:00,
2013-03-23 19:04:00,72.6,68.5,29.59,East,95,5.8,5.8,87,0.00,CLR,,0.00,WeatherDisplay:10.37,2013-03-24 00:04:00,
2013-03-23 19:09:00,72.2,68.4,29.58,East,84,5.8,5.8,88,0.00,CLR,,0.00,WeatherDisplay:10.37,2013-03-24 00:09:00,
2013-03-23 19:14:00,71.9,68.5,29.59,East,91,4.6,4.6,89,0.00,CLR,,0.00,WeatherDisplay:10.37,2013-03-24 00:14:00,
2013-03-23 19:19:00,71.6,68.2,29.59,ESE,103,5.8,5.8,89,0.00,CLR,,0.00,WeatherDisplay:10.37,2013-03-24 00:19:00,
2013-03-23 19:24:00,71.2,68.1,29.59,ESE,119,5.8,5.8,90,0.00,CLR,,0.00,WeatherDisplay:10.37,2013-03-24 00:24:00,
2013-03-23 19:29:00,70.9,67.8,29.59,East,80,3.5,3.5,90,0.00,CLR,,0.00,WeatherDisplay:10.37,2013-03-24 00:29:00,
2013-03-23 19:34:00,70.5,67.7,29.59,ESE,107,5.8,5.8,91,0.00,CLR,,0.00,WeatherDisplay:10.37,2013-03-24 00:34:00,
2013-03-23 19:39:00,70.1,67.3,29.59,East,98,1.1,1.1,91,0.00,CLR,,0.00,WeatherDisplay:10.37,2013-03-24 00:39:00,
2013-03-23 19:44:00,69.8,67.4,29.59,ESE,108,5.8,5.8,92,0.00,CLR,,0.00,WeatherDisplay:10.37,2013-03-24 00:44:00,
2013-03-23 19:49:00,69.5,67.1,29.59,ESE,113,3.5,3.5,92,0.00,CLR,,0.00,WeatherDisplay:10.37,2013-03-24 00:49:00,
2013-03-23 19:54:00,69.2,67.1,29.59,ESE,111,2.3,2.3,93,0.00,CLR,,0.00,WeatherDisplay:10.37,2013-03-24 00:54:00,
2013-03-23 19:59:00,68.9,66.8,29.59,ESE,104,3.5,3.5,93,0.00,CLR,,0.00,WeatherDisplay:10.37,2013-03-24 00:59:00,
2013-03-23 20:04:00,68.6,66.8,29.59,ESE,104,2.3,2.3,94,0.00,CLR,,0.00,WeatherDisplay:10.37,2013-03-24 01:04:00,
2013-03-23 20:09:00,68.4,66.6,29.59,East,96,4.6,4.6,94,0.00,CLR,,0.00,WeatherDisplay:10.37,2013-03-24 01:09:00,
2013-03-23 20:14:00,68.0,66.5,29.59,ESE,118,5.8,5.8,95,0.00,CLR,,0.00,WeatherDisplay:10.37,2013-03-24 01:14:00,
2013-03-23 20:19:00,67.8,66.3,29.60,ESE,117,5.8,5.8,95,0.00,CLR,,0.00,WeatherDisplay:10.37,2013-03-24 01:19:00,
2013-03-23 20:24:00,67.6,66.4,29.60,ESE,103,5.8,5.8,96,0.00,CLR,,0.00,WeatherDisplay:10.37,2013-03-24 01:24:00,
2013-03-23 20:29:00,67.5,66.3,29.60,East,84,4.6,4.6,96,0.00,CLR,,0.00,WeatherDisplay:10.37,2013-03-24 01:29:00,
2013-03-23 20:34:00,67.5,66.3,29.60,East,97,4.6,4.6,96,0.00,CLR,,0.00,WeatherDisplay:10.37,2013-03-24 01:34:00,
2013-03-23 20:39:00,67.4,66.5,29.61,ESE,115,4.6,4.6,97,0.00,CLR,,0.00,WeatherDisplay:10.37,2013-03-24 01:39:00,
2013-03-23 20:44:00,67.5,66.6,29.61,East,84,5.8,5.8,97,0.00,CLR,,0.00,WeatherDisplay:10.37,2013-03-24 01:44:00,
2013-03-23 20:49:00,67.5,66.6,29.61,ENE,74,5.8,5.8,97,0.00,CLR,,0.00,WeatherDisplay:10.37,2013-03-24 01:49:00,
2013-03-23 20:54:00,67.5,66.6,29.61,ENE,68,5.8,5.8,97,0.00,CLR,,0.00,WeatherDisplay:10.37,2013-03-24 01:54:00,
2013-03-23 20:59:00,67.5,66.6,29.61,ENE,78,5.8,5.8,97,0.00,CLR,,0.00,WeatherDisplay:10.37,2013-03-24 01:59:00,
2013-03-23 21:04:00,67.6,67.0,29.61,ENE,69,5.8,5.8,98,0.00,CLR,,0.00,WeatherDisplay:10.37,2013-03-24 02:04:00,
2013-03-23 21:09:00,67.6,67.0,29.61,East,83,8.1,8.1,98,0.00,CLR,,0.00,WeatherDisplay:10.37,2013-03-24 02:09:00,
2013-03-23 21:14:00,67.6,67.0,29.61,ESE,103,4.6,4.6,98,0.00,CLR,,0.00,WeatherDisplay:10.37,2013-03-24 02:14:00,
2013-03-23 21:19:00,67.4,66.8,29.61,East,86,5.8,5.8,98,0.00,CLR,,0.00,WeatherDisplay:10.37,2013-03-24 02:19:00,
2013-03-23 21:24:00,67.1,66.5,29.61,East,86,8.1,8.1,98,0.00,CLR,,0.00,WeatherDisplay:10.37,2013-03-24 02:24:00,
2013-03-23 21:29:00,66.8,66.2,29.61,East,84,3.5,3.5,98,0.00,CLR,,0.00,WeatherDisplay:10.37,2013-03-24 02:29:00,
2013-03-23 21:34:00,66.7,66.1,29.61,ENE,61,5.8,5.8,98,0.00,CLR,,0.00,WeatherDisplay:10.37,2013-03-24 02:34:00,
2013-03-23 21:39:00,66.6,66.3,29.61,ENE,65,4.6,4.6,99,0.00,CLR,,0.00,WeatherDisplay:10.37,2013-03-24 02:39:00,
2013-03-23 21:44:00,66.6,66.3,29.61,East,81,5.8,5.8,99,0.00,CLR,,0.00,WeatherDisplay:10.37,2013-03-24 02:44:00,
2013-03-23 21:49:00,66.7,66.4,29.61,ENE,63,5.8,5.8,99,0.00,CLR,,0.00,WeatherDisplay:10.37,2013-03-24 02:49:00,
2013-03-23 21:54:00,66.9,66.6,29.61,ENE,73,5.8,5.8,99,0.00,CLR,,0.00,WeatherDisplay:10.37,2013-03-24 02:54:00,
2013-03-23 21:59:00,66.9,66.6,29.61,East,98,4.6,4.6,99,0.00,CLR,,0.00,WeatherDisplay:10.37,2013-03-24 02:59:00,
2013-03-23 22:04:00,67.0,66.7,29.62,East,99,3.5,3.5,99,0.00,CLR,,0.00,WeatherDisplay:10.37,2013-03-24 03:04:00,
2013-03-23 22:09:00,66.9,66.6,29.62,ESE,104,4.2,4.2,99,0.00,CLR,,0.00,WeatherDisplay:10.37,2013-03-24 03:09:00,
2013-03-23 22:14:00,66.9,66.6,29.62,ENE,65,5.8,5.8,99,0.00,CLR,,0.00,WeatherDisplay:10.37,2013-03-24 03:14:00,
2013-03-23 22:19:00,66.9,66.6,29.62,ENE,62,4.6,4.6,99,0.00,CLR,,0.00,WeatherDisplay:10.37,2013-03-24 03:19:00,
2013-03-23 22:24:00,66.9,66.6,29.62,NE,56,5.8,5.8,99,0.00,CLR,,0.00,WeatherDisplay:10.37,2013-03-24 03:24:00,
2013-03-23 22:29:00,66.9,66.6,29.62,ESE,103,4.6,4.6,99,0.00,CLR,,0.00,WeatherDisplay:10.37,2013-03-24 03:29:00,
2013-03-23 22:34:00,66.7,66.4,29.62,ESE,102,3.5,3.5,99,0.00,CLR,,0.00,WeatherDisplay:10.37,2013-03-24 03:34:00,
2013-03-23 22:39:00,66.6,66.3,29.62,ESE,103,3.5,3.5,99,0.00,CLR,,0.00,WeatherDisplay:10.37,2013-03-24 03:39:00,
2013-03-23 22:44:00,66.4,66.1,29.62,ESE,103,3.5,3.5,99,0.00,CLR,,0.00,WeatherDisplay:10.37,2013-03-24 03:44:00,
2013-03-23 22:49:00,66.3,66.0,29.62,ESE,105,3.5,3.5,99,0.00,CLR,,0.00,WeatherDisplay:10.37,2013-03-24 03:49:00,
2013-03-23 22:54:00,66.2,65.9,29.63,ESE,105,3.5,3.5,99,0.00,CLR,,0.00,WeatherDisplay:10.37,2013-03-24 03:54:00,
2013-03-23 22:59:00,66.2,65.9,29.63,ESE,105,2.3,2.3,99,0.00,CLR,,0.00,WeatherDisplay:10.37,2013-03-24 03:59:00,
2013-03-23 23:00:00,66.2,65.9,29.63,ESE,105,2.3,2.3,99,0.00,CLR,,0.00,WeatherDisplay:10.37,2013-03-24 04:00:00,
2013-03-23 23:05:00,66.2,65.9,29.63,ENE,78,4.6,4.6,99,0.00,CLR,,0.00,WeatherDisplay:10.37,2013-03-24 04:05:00,
2013-03-23 23:10:00,66.1,65.8,29.63,East,96,4.6,4.6,99,0.00,CLR,,0.00,WeatherDisplay:10.37,2013-03-24 04:10:00,
2013-03-23 23:15:00,66.1,65.8,29.63,East,98,1.1,0.0,99,0.00,CLR,,0.00,WeatherDisplay:10.37,2013-03-24 04:15:00,
2013-03-23 23:20:00,66.0,65.7,29.63,East,98,1.1,1.1,99,0.00,CLR,,0.00,WeatherDisplay:10.37,2013-03-24 04:20:00,
2013-03-23 23:25:00,65.7,65.4,29.64,East,98,0.0,0.0,99,0.00,CLR,,0.00,WeatherDisplay:10.37,2013-03-24 04:25:00,
2013-03-23 23:30:00,65.5,65.2,29.63,East,98,0.0,0.3,99,0.00,CLR,,0.00,WeatherDisplay:10.37,2013-03-24 04:30:00,
2013-03-23 23:35:00,65.5,65.5,29.63,East,98,1.1,1.1,100,0.00,CLR,,0.00,WeatherDisplay:10.37,2013-03-24 04:35:00,
2013-03-23 23:40:00,65.6,65.6,29.63,East,98,1.1,1.1,100,0.00,CLR,,0.00,WeatherDisplay:10.37,2013-03-24 04:40:00,
2013-03-23 23:45:00,65.7,65.7,29.63,East,98,2.3,2.3,100,0.00,CLR,,0.00,WeatherDisplay:10.37,2013-03-24 04:45:00,
2013-03-23 23:50:00,65.8,65.8,29.63,East,98,2.3,2.3,100,0.00,CLR,,0.00,WeatherDisplay:10.37,2013-03-24 04:50:00,
2013-03-23 23:55:00,65.6,65.3,29.63,East,98,2.3,2.3,99,0.00,CLR,,0.00,WeatherDisplay:10.37,2013-03-24 04:55:00,